Date String (YYYY-MM-DD hh:mm:ss) UTC,Instrument flags,Ambient pressure (hPa),Sample flow (lpm),Bypass flow (lpm),Sample temperature (°C),Ambient temperature (°C),ASC tube jacket temperature (°C),LED temperature (°C),Box temperature (°C),Sample RH (%),Span deviation,Mass concentration (μg/m³),Mass concentration (μg/m³),Mass concentration (μg/m³)
DateTimeUTC,F1_M11,P_M11,Q1_M11,Q2_M11,T1_M11,T2_M11,T3_M11,T4_M11,T5_M11,U1_M11,ZSPAN_M11,X0_M11,X2_M11,X1_M11
2022-04-09 20:00:00,,0815.0,5.01,0.00,29.9,28.1,00.0,38.9,31.6,06.3,0000.0,0010.89,0003.82,0001.86
2022-04-09 20:01:00,,0815.0,4.98,0.00,29.9,28.3,00.0,38.9,31.6,06.2,0000.0,0010.93,0003.86,0001.87
2022-04-09 20:02:00,,0815.1,5.02,0.00,29.9,28.5,00.0,38.9,31.6,06.3,0000.0,0011.05,0003.91,0001.90
2022-04-09 20:03:00,,0814.9,4.99,0.00,29.9,28.6,00.0,38.9,31.7,06.5,0000.0,0011.11,0003.98,0001.93
2022-04-09 20:04:00,,0815.0,4.99,0.00,30.0,28.7,00.0,38.9,31.7,06.4,0000.0,0010.97,0003.99,0001.94
2022-04-09 20:05:00,,0814.7,5.01,0.00,30.0,28.8,00.0,38.9,31.7,06.5,0000.0,0010.42,0003.95,0001.93
2022-04-09 20:06:00,,0814.7,5.00,0.00,30.0,28.9,00.0,38.9,31.7,06.4,0000.0,0010.41,0003.90,0001.90
2022-04-09 20:07:00,,0814.7,4.98,0.00,30.0,28.9,00.0,38.9,31.8,06.1,0000.0,0010.49,0003.86,0001.88
2022-04-09 20:08:00,,0814.8,5.02,0.00,30.0,29.0,00.0,38.9,31.8,06.1,0000.0,0010.56,0003.84,0001.90
2022-04-09 20:09:00,,0814.8,4.99,0.00,30.0,29.0,00.0,38.9,31.8,06.2,0000.0,0010.48,0003.85,0001.90
2022-04-09 20:10:00,,0814.8,4.99,0.00,30.0,29.1,00.0,38.9,31.7,06.2,0000.0,0011.56,0003.89,0001.90
2022-04-09 20:11:00,,0814.8,5.01,0.00,30.0,29.1,00.0,38.9,31.8,06.1,0000.0,0012.14,0003.88,0001.88
2022-04-09 20:12:00,,0814.8,5.01,0.00,30.1,29.2,00.0,38.9,31.8,06.2,0000.0,0012.32,0003.85,0001.87
2022-04-09 20:13:00,,0814.8,4.99,0.00,30.1,28.9,00.0,39.0,31.8,06.3,0000.0,0012.16,0003.80,0001.86
2022-04-09 20:14:00,,0814.9,5.00,0.00,30.0,26.7,00.0,39.0,31.3,06.3,0000.0,0012.33,0003.75,0001.84
2022-04-09 20:15:00,,0814.8,5.01,0.00,29.8,25.5,00.0,38.9,31.0,06.3,0000.0,0012.67,0003.78,0001.84
2022-04-09 20:16:00,,0814.8,5.00,0.00,29.7,25.8,00.0,38.9,31.1,06.4,0000.0,0012.66,0003.81,0001.84
2022-04-09 20:17:00,,0814.8,5.02,0.00,29.7,26.2,00.0,38.8,31.1,06.2,0000.0,0012.38,0003.80,0001.84
2022-04-09 20:18:00,,0814.6,5.00,0.00,29.6,26.7,00.0,38.8,31.2,06.4,0000.0,0012.20,0003.79,0001.86
2022-04-09 20:19:00,,0814.7,4.99,0.00,29.6,27.1,00.0,38.7,31.2,06.2,0000.0,0011.97,0003.76,0001.86
2022-04-09 20:20:00,,0814.7,5.00,0.00,29.6,27.4,00.0,38.7,31.3,06.3,0000.0,0012.37,0003.81,0001.86
2022-04-09 20:21:00,,0814.5,5.01,0.00,29.6,27.7,00.0,38.7,31.3,06.3,0000.0,0011.72,0003.86,0001.86
2022-04-09 20:22:00,,0814.8,4.99,0.00,29.6,27.9,00.0,38.7,31.3,06.3,0000.0,0010.77,0003.89,0001.89
2022-04-09 20:23:00,,0814.8,5.00,0.00,29.7,28.1,00.0,38.7,31.4,06.3,0000.0,0010.68,0003.94,0001.90
2022-04-09 20:24:00,,0814.9,5.01,0.00,29.7,28.3,00.0,38.7,31.4,06.3,0000.0,0011.21,0003.96,0001.88
2022-04-09 20:25:00,,0814.7,4.98,0.00,29.7,28.4,00.0,38.7,31.4,06.3,0000.0,0011.38,0004.02,0001.90
2022-04-09 20:26:00,,0814.7,5.01,0.00,29.7,28.5,00.0,38.7,31.4,06.3,0000.0,0011.02,0004.08,0001.91
2022-04-09 20:27:00,,0815.0,5.00,0.00,29.7,28.6,00.0,38.7,31.5,06.5,0000.0,0011.07,0004.10,0001.93
2022-04-09 20:28:00,,0814.8,4.99,0.00,29.8,28.7,00.0,38.7,31.5,06.6,0000.0,0011.09,0004.13,0001.93
2022-04-09 20:29:00,,0815.0,5.00,0.00,29.8,28.8,00.0,38.7,31.6,06.4,0000.0,0011.46,0004.17,0001.92
2022-04-09 20:30:00,,0814.9,5.01,0.00,29.8,28.8,00.0,38.7,31.6,06.2,0000.0,0012.14,0004.22,0001.92
2022-04-09 20:31:00,,0814.8,4.99,0.00,29.9,28.9,00.0,38.7,31.7,06.5,0000.0,0011.89,0004.17,0001.91
2022-04-09 20:32:00,,0815.1,5.01,0.00,29.9,28.9,00.0,38.8,31.7,06.3,0000.0,0011.78,0004.12,0001.92
2022-04-09 20:33:00,,0814.7,4.99,0.00,29.9,29.0,00.0,38.8,31.7,06.3,0000.0,0011.60,0004.04,0001.91
2022-04-09 20:34:00,,0814.3,5.00,0.00,30.0,29.0,00.0,38.8,31.8,06.4,0000.0,0011.16,0004.01,0001.90
2022-04-09 20:35:00,,0814.6,5.01,0.00,30.0,29.1,00.0,38.8,31.8,06.6,0000.0,0010.92,0004.06,0001.91
2022-04-09 20:36:00,,0814.4,5.01,0.00,30.0,29.1,00.0,38.8,31.8,06.2,0000.0,0010.76,0004.08,0001.90
2022-04-09 20:37:00,,0814.3,4.99,0.00,30.0,27.8,00.0,38.8,31.5,06.2,0000.0,0011.04,0004.00,0001.92
2022-04-09 20:38:00,,0814.4,4.99,0.00,29.8,25.7,00.0,38.8,31.1,06.3,0000.0,0011.60,0004.04,0001.93
2022-04-09 20:39:00,,0814.2,5.00,0.00,29.7,25.4,00.0,38.8,31.0,06.2,0000.0,0012.39,0004.09,0001.95
2022-04-09 20:40:00,,0814.4,5.02,0.00,29.6,25.8,00.0,38.7,31.0,06.3,0000.0,0012.68,0004.06,0001.96
2022-04-09 20:41:00,,0814.4,5.00,0.00,29.6,26.3,00.0,38.7,31.1,06.3,0000.0,0013.41,0004.01,0001.96
2022-04-09 20:42:00,,0814.4,5.00,0.00,29.5,26.7,00.0,38.6,31.1,06.4,0000.0,0013.50,0004.05,0001.99
2022-04-09 20:43:00,,0814.4,5.00,0.00,29.5,27.1,00.0,38.6,31.2,06.3,0000.0,0013.40,0004.05,0001.99
2022-04-09 20:44:00,,0814.4,5.00,0.00,29.5,27.4,00.0,38.6,31.2,06.4,0000.0,0014.49,0004.12,0002.00
2022-04-09 20:45:00,,0814.3,5.00,0.00,29.6,27.7,00.0,38.6,31.3,06.4,0000.0,0014.97,0004.15,0002.02
2022-04-09 20:46:00,,0814.2,5.00,0.00,29.6,27.9,00.0,38.6,31.3,06.4,0000.0,0014.74,0004.10,0002.04
2022-04-09 20:47:00,,0814.3,4.99,0.00,29.6,28.1,00.0,38.6,31.3,06.4,0000.0,0014.66,0004.07,0002.04
2022-04-09 20:48:00,,0814.2,5.01,0.00,29.6,28.2,00.0,38.6,31.4,06.7,0000.0,0014.58,0004.08,0002.02
2022-04-09 20:49:00,,0814.1,5.00,0.00,29.6,28.4,00.0,38.6,31.4,06.5,0000.0,0014.25,0004.10,0002.01
2022-04-09 20:50:00,,0814.2,5.01,0.00,29.7,28.5,00.0,38.6,31.5,06.2,0000.0,0013.77,0004.07,0002.01
2022-04-09 20:51:00,,0814.1,5.01,0.00,29.7,28.6,00.0,38.6,31.5,06.2,0000.0,0013.55,0004.12,0002.02
2022-04-09 20:52:00,,0814.2,4.98,0.00,29.7,28.6,00.0,38.6,31.5,06.3,0000.0,0012.81,0004.17,0002.03
2022-04-09 20:53:00,,0814.2,5.01,0.00,29.7,28.7,00.0,38.6,31.5,06.2,0000.0,0013.07,0004.21,0002.04
2022-04-09 20:54:00,,0814.2,5.00,0.00,29.8,28.7,00.0,38.6,31.5,06.2,0000.0,0014.23,0004.31,0002.06
2022-04-09 20:55:00,,0814.2,4.99,0.00,29.8,28.8,00.0,38.6,31.6,06.5,0000.0,0014.04,0004.36,0002.08
2022-04-09 20:56:00,,0814.2,5.00,0.00,29.8,28.9,00.0,38.6,31.6,06.6,0000.0,0013.78,0004.38,0002.06
2022-04-09 20:57:00,,0814.2,5.01,0.00,29.8,28.9,00.0,38.7,31.6,06.2,0000.0,0014.03,0004.40,0002.06
2022-04-09 20:58:00,,0814.1,4.98,0.00,29.9,29.0,00.0,38.7,31.7,06.2,0000.0,0013.94,0004.38,0002.05
2022-04-09 20:59:00,,0814.0,4.99,0.00,29.9,29.0,00.0,38.7,31.7,06.2,0000.0,0014.22,0004.39,0002.06
